#timestamp,LO_Frequency,Hit,StdDev 
1628017215.0,286047004.4,Y
1628017215.9,286047004.4,P
1628017235.8,286047002.4,N
1628017255.6,286047002.8,N
1628017275.4,286047002.6,N
1628017295.3,286047002.7,N
1628017315.1,286047000.3,N
1628017335.8,286046999.9,N
1628017355.7,286047002.5,N
1628017375.5,286047002.5,N
1628017395.4,286047001.5,N
1628017415.2,286047002.3,N
1628017435.0,286047001.5,N
1628017435.9,286047001.5,N
1628017455.8,286047001.4,N
1628017475.6,286047001.8,N
1628017495.5,286047002.3,N
1628017515.3,286047000.8,N
1628017535.1,286047000.7,N
1628017555.9,286047000.7,N
1628017575.7,286046998.8,N
1628017595.6,286046998.6,N
1628017615.4,286046999.9,N
1628017635.2,286047001.8,N
1628017655.1,286046999.8,N
1628017656.0,286046999.8,N
1628017675.8,286047000.5,N
1628017695.6,286046998.3,N
1628017715.5,286047000.8,N
1628017735.3,286047000.9,N
1628017755.1,286047002.3,N
1628017775.9,286047003.8,N
1628017795.7,286047002.9,N
1628017815.6,286047006.0,Y
1628017835.4,286047003.8,P
1628017855.2,286047004.4,P
1628017875.1,286047001.5,N
1628017876.0,286047001.5,N
1628017895.8,286047001.3,N
1628017915.6,286047001.6,N
1628017935.5,286047002.5,N
1628017955.3,286047002.2,N
1628017975.2,286047001.9,N
1628017995.9,286047001.5,N
1628018015.7,286047001.5,N
1628018035.6,286047001.5,N
1628018055.4,286047004.4,Y
1628018075.2,286047002.8,P
1628018095.1,286047000.2,N
1628018096.0,286047000.2,N
1628018115.8,286047000.6,N
1628018135.7,286046999.9,N
1628018155.5,286047002.7,N
1628018175.3,286047002.6,N
1628018195.2,286047001.9,N
1628018215.0,286047002.4,N
1628018215.9,286047002.4,N
1628018235.7,286047002.4,N
1628018255.6,286047000.1,N
1628018275.4,286047000.3,N
1628018295.3,286047000.7,N
1628018315.1,286046998.2,N
1628018316.0,286046998.2,N
1628018335.8,286046998.7,N
1628018355.7,286046996.7,N
1628018375.5,286046994.9,N
1628018395.3,286046995.5,N
1628018415.2,286046995.2,N
1628018435.0,286046995.3,N
1628018435.9,286046995.3,N
1628018455.8,286046994.9,N
1628018475.6,286046997.8,N
1628018495.4,286046997.0,N
1628018515.3,286046996.5,N
1628018535.1,286046997.4,N
1628018555.9,286046995.1,N
1628018575.7,286046996.1,N
1628018595.5,286046994.1,N
1628018615.4,286046996.4,N
1628018635.2,286046995.0,N
1628018655.0,286046995.5,N
1628018655.9,286046995.5,N
1628018675.8,286046995.6,N
1628018695.6,286046995.3,N
1628018715.5,286046995.5,N
1628018735.3,286046995.4,N
1628018755.1,286046994.9,N
1628018775.9,286046994.9,N
1628018795.7,286046995.2,N
1628018815.5,286046998.0,N
1628018835.4,286046997.5,N
1628018855.2,286046995.5,Y
1628018875.1,286047002.3,P
1628018876.0,286047002.3,N
1628018895.8,286047004.3,N
1628018915.6,286047001.4,N
1628018935.5,286047002.1,N
1628018955.3,286047002.3,N
1628018975.1,286047002.3,N
1628018995.9,286047004.1,N
1628019015.7,286047003.5,N
1628019035.6,286047004.1,N
1628019055.4,286047002.2,N
1628019075.2,286047002.1,N
1628019095.1,286047002.2,N
1628019096.0,286047002.2,N
1628019115.8,286047000.3,N
1628019135.6,286047000.7,N
1628019155.5,286047000.6,N
1628019175.3,286047001.0,N
1628019195.2,286047001.9,N
1628019215.9,286047002.3,N
1628019235.7,286047002.0,N
1628019255.6,286047001.9,N
1628019275.4,286046999.7,N
1628019295.2,286047002.1,N
1628019315.1,286047002.5,N
1628019316.0,286047002.5,N
1628019335.8,286047002.1,N
1628019355.7,286047004.3,N
1628019375.5,286047001.7,N
1628019395.3,286047001.7,N
1628019415.2,286047001.4,N
1628019435.9,286047001.3,N
1628019455.7,286047003.7,Y
1628019475.6,286047002.0,P
1628019495.4,286047000.5,P
1628019515.3,286047002.6,P
1628019535.1,286047002.7,Y
1628019536.0,286047002.7,P
1628019555.8,286046998.7,N
1628019575.7,286046998.6,N
1628019595.5,286046998.4,N
1628019615.3,286047000.7,N
1628019635.2,286047000.8,N
1628019655.0,286047000.7,N
1628019655.9,286047000.7,N
1628019675.8,286047000.7,N
1628019725.6,286047000.9,E
1628019735.5,286047000.8,N
1628019755.4,286046996.9,P
1628019775.2,286046999.5,N
1628019795.0,286046996.7,N
1628019796.0,286046996.7,N
1628019815.8,286046997.5,N
1628019835.6,286046997.9,N
1628019855.5,286046997.6,N
1628019875.3,286046999.3,N
1628019895.1,286046996.5,N
1628019915.9,286046999.6,N
1628019935.7,286046999.5,N
1628019955.6,286046999.0,N
1628019975.4,286046997.0,N
1628019995.2,286046997.1,N
1628020015.1,286046996.6,N
1628020016.0,286046996.6,N
1628020035.8,286046996.5,N
1628020055.6,286046996.5,N
1628020075.5,286046996.6,N
1628020095.3,286046999.4,N
1628020115.1,286046999.2,N
1628020135.9,286046996.6,N
1628020155.7,286046997.2,N
1628020175.6,286046997.9,N
1628020195.4,286046996.5,N
1628020215.2,286046996.7,N
1628020235.1,286046999.3,N
1628020236.0,286046999.3,N
1628020255.8,286046999.1,N
1628020275.7,286046998.7,N
1628020295.5,286047000.8,N
1628020315.3,286047000.4,N
1628020335.2,286047000.5,N
1628020355.0,286047001.1,N
1628020355.9,286047001.1,N
1628020375.7,286046999.5,N
1628020395.6,286046997.7,N
1628020415.4,286046996.5,N
1628020435.3,286046997.5,N
1628020455.1,286046995.0,Y
1628020475.8,286046999.4,P
1628020495.7,286046997.7,P
1628020515.5,286046997.4,P
1628020535.4,286046997.0,Y
1628020555.2,286046998.7,P
1628020575.0,286047000.5,N
1628020575.9,286047000.5,N
1628020595.8,286047002.8,N
1628020615.6,286047002.1,N
1628020635.5,286047004.2,N
1628020655.3,286047002.4,N
1628020675.1,286047002.8,N
1628020695.9,286047000.1,N
1628020715.7,286046999.8,N
1628020735.5,286047002.2,N
1628020755.4,286046999.7,N
1628020775.2,286047002.0,N
1628020795.1,286047002.0,N
1628020796.0,286047002.0,N
